Location: Albuquerque Trailhead
(34.7934°N, 106.3736°W)
Time: 05:30:11
(UTC+00:00)

UNK - Pass Details

Date: 20 June 2021
Orbit: 667 x 686 km, 98.2° (Epoch: 29 July)

Event Time Altitude Azimuth Distance (km) Brightness Sun altitude
Exits shadow 09:06:00 84° 327° (NNW) 681 3.6 -25.3°
Drops below altitude 10° 09:10:30 10° 347° (NNW) 2,115 6.9 -24.8°
Sets 09:12:44 0° 348° (NNW) 3,036 7.8 -24.6°
